Regional Weather Roundup
Issued by NWS Tiyan, Guam

Home | Current Version | Previous Version | Text Only | Print | Product List | Glossary On
Versions: 1 2 3 4 5 6 7 8 9 10 11 12 13 14 15 16 17 18 19 20 21 22 23 24 25 26 27
000
ASGM40 PGUM 270612
RWRGUM
WEATHER ROUNDUP FOR THE MARIANAS
NATIONAL WEATHER SERVICE TIYAN GU
400 PM CHST SAT MAY 27 2017

GUZ001>004-270700-
MARIANA ISLANDS-

CITY           SKY/WX    TMP DP  RH WIND       PRES   REMARKS
GUAM AIRPORT   MOSUNNY   88  75  66 E14G22    29.85S HX  97
ANDERSEN AFB   MOSUNNY   86  73  66 E15       29.86F HX  93
ROTA AIRPORT   MOSUNNY   86  77  74 E12       29.86S HX  97
TINIAN AP      MOSUNNY   84  75  74 E17       29.84F HX  92
SAIPAN AP      MOSUNNY   90  75  62 NE16      29.86S HX 100

$$





USA.gov is the U.S. government's official web portal to all federal, state and local government web resources and services.